TimeMDT,TemperatureF,Dew PointF,Humidity,Sea Level PressureIn,VisibilityMPH,Wind Direction,Wind SpeedMPH,Gust SpeedMPH,PrecipitationIn,Events,Conditions,WindDirDegrees,DateUTC
12:15 AM,42.6,13.8,31,30.45,10.0,NW,9.2,13.8,N/A,,Clear,310,2013-03-14 06:15:00
12:55 AM,41.0,14.5,34,30.46,10.0,WNW,5.8,-,N/A,,Clear,290,2013-03-14 06:55:00
1:15 AM,42.1,14.0,32,30.47,10.0,Calm,Calm,-,N/A,,Clear,0,2013-03-14 07:15:00
1:35 AM,39.2,15.4,38,30.46,10.0,WSW,6.9,-,N/A,,Clear,240,2013-03-14 07:35:00
1:55 AM,36.7,16.3,44,30.47,10.0,North,3.5,-,N/A,,Clear,360,2013-03-14 07:55:00
2:15 AM,35.1,16.5,47,30.47,10.0,NW,4.6,-,N/A,,Clear,320,2013-03-14 08:15:00
2:35 AM,35.4,16.3,46,30.47,10.0,Calm,Calm,-,N/A,,Clear,0,2013-03-14 08:35:00
2:55 AM,35.2,16.3,46,30.47,10.0,Calm,Calm,-,N/A,,Clear,0,2013-03-14 08:55:00
3:15 AM,35.8,16.2,45,30.46,10.0,WSW,5.8,-,N/A,,Clear,240,2013-03-14 09:15:00
3:35 AM,35.8,16.7,46,30.46,10.0,WNW,5.8,-,N/A,,Clear,290,2013-03-14 09:35:00
3:55 AM,32.7,16.9,52,30.46,10.0,Calm,Calm,-,N/A,,Clear,0,2013-03-14 09:55:00
4:15 AM,33.8,17.1,50,30.46,10.0,SW,5.8,-,N/A,,Clear,230,2013-03-14 10:15:00
4:35 AM,35.4,17.6,48,30.46,10.0,WSW,6.9,-,N/A,,Clear,250,2013-03-14 10:35:00
4:55 AM,36.3,17.4,46,30.46,10.0,WSW,5.8,-,N/A,,Clear,250,2013-03-14 10:55:00
5:15 AM,34.0,17.4,51,30.46,10.0,WNW,3.5,-,N/A,,Clear,300,2013-03-14 11:15:00
5:35 AM,34.7,17.1,49,30.47,10.0,Calm,Calm,-,N/A,,Clear,0,2013-03-14 11:35:00
5:55 AM,32.9,16.7,51,30.47,10.0,Calm,Calm,-,N/A,,Clear,0,2013-03-14 11:55:00
6:15 AM,34.2,17.1,50,30.49,10.0,West,3.5,-,N/A,,Clear,260,2013-03-14 12:15:00
6:35 AM,32.7,17.2,53,30.50,10.0,Calm,Calm,-,N/A,,Clear,0,2013-03-14 12:35:00
6:55 AM,32.0,18.1,57,30.50,10.0,West,5.8,-,N/A,,Clear,280,2013-03-14 12:55:00
7:15 AM,31.8,17.6,56,30.51,10.0,Calm,Calm,-,N/A,,Clear,0,2013-03-14 13:15:00
7:35 AM,30.2,17.6,60,30.52,10.0,Calm,Calm,-,N/A,,Clear,0,2013-03-14 13:35:00
7:55 AM,32.0,17.8,56,30.53,10.0,Calm,Calm,-,N/A,,Clear,0,2013-03-14 13:55:00
8:15 AM,35.1,18.7,51,30.53,10.0,West,4.6,-,N/A,,Clear,280,2013-03-14 14:15:00
8:35 AM,39.4,20.1,46,30.52,10.0,West,9.2,-,N/A,,Clear,270,2013-03-14 14:35:00
8:55 AM,38.8,20.3,47,30.52,10.0,NNE,8.1,-,N/A,,Clear,30,2013-03-14 14:55:00
9:15 AM,40.5,19.8,44,30.53,10.0,ESE,4.6,-,N/A,,Clear,120,2013-03-14 15:15:00
9:35 AM,42.8,16.9,35,30.53,10.0,SSE,4.6,-,N/A,,Clear,150,2013-03-14 15:35:00
9:55 AM,46.2,16.7,31,30.52,10.0,Calm,Calm,-,N/A,,Clear,0,2013-03-14 15:55:00
10:15 AM,49.6,16.9,27,30.52,10.0,Calm,Calm,-,N/A,,Clear,0,2013-03-14 16:15:00
10:35 AM,50.9,16.2,25,30.51,10.0,Calm,Calm,-,N/A,,Clear,0,2013-03-14 16:35:00
10:55 AM,52.9,16.2,23,30.50,10.0,NNW,9.2,-,N/A,,Clear,340,2013-03-14 16:55:00
11:15 AM,53.6,15.6,22,30.49,10.0,WNW,10.4,-,N/A,,Clear,300,2013-03-14 17:15:00
11:35 AM,54.7,15.6,21,30.48,10.0,NW,10.4,-,N/A,,Clear,310,2013-03-14 17:35:00
11:55 AM,56.5,13.8,19,30.46,10.0,NNW,10.4,-,N/A,,Clear,330,2013-03-14 17:55:00
12:15 PM,58.6,12.0,16,30.46,10.0,West,5.8,-,N/A,,Clear,260,2013-03-14 18:15:00
12:35 PM,60.3,11.1,14,30.45,10.0,WNW,4.6,-,N/A,,Clear,290,2013-03-14 18:35:00
12:55 PM,62.4,12.9,14,30.45,10.0,West,4.6,-,N/A,,Clear,260,2013-03-14 18:55:00
1:15 PM,63.3,12.2,14,30.43,10.0,South,3.5,-,N/A,,Clear,180,2013-03-14 19:15:00
1:35 PM,64.2,11.7,13,30.42,10.0,Calm,Calm,-,N/A,,Clear,0,2013-03-14 19:35:00
1:55 PM,64.6,12.0,13,30.41,10.0,SSW,12.7,17.3,N/A,,Clear,200,2013-03-14 19:55:00
2:15 PM,64.4,11.5,13,30.40,10.0,SSE,5.8,18.4,N/A,,Clear,160,2013-03-14 20:15:00
2:35 PM,63.9,12.4,13,30.39,10.0,SW,8.1,-,N/A,,Clear,230,2013-03-14 20:35:00
3:15 PM,64.4,12.6,13,30.38,10.0,SSW,12.7,20.7,N/A,,Clear,200,2013-03-14 21:15:00
3:35 PM,64.8,12.7,13,30.38,10.0,SW,16.1,20.7,N/A,,Clear,220,2013-03-14 21:35:00
3:55 PM,61.9,13.6,15,30.37,10.0,SW,10.4,-,N/A,,Clear,230,2013-03-14 21:55:00
4:15 PM,61.7,12.7,15,30.38,10.0,SW,10.4,-,N/A,,Clear,230,2013-03-14 22:15:00
4:35 PM,62.1,11.3,14,30.37,10.0,SW,10.4,16.1,N/A,,Clear,230,2013-03-14 22:35:00
4:55 PM,62.2,11.3,14,30.37,10.0,West,16.1,23.0,N/A,,Clear,270,2013-03-14 22:55:00
5:15 PM,62.6,10.8,13,30.37,10.0,West,17.3,24.2,N/A,,Clear,270,2013-03-14 23:15:00
5:35 PM,60.4,11.1,14,30.37,10.0,West,20.7,24.2,N/A,,Clear,260,2013-03-14 23:35:00
5:55 PM,59.5,10.9,15,30.38,10.0,West,20.7,26.5,N/A,,Clear,270,2013-03-14 23:55:00
6:15 PM,58.6,11.3,15,30.38,10.0,WSW,15.0,-,N/A,,Clear,250,2013-03-15 00:15:00
6:35 PM,58.6,11.5,16,30.38,10.0,WSW,10.4,19.6,N/A,,Clear,240,2013-03-15 00:35:00
6:55 PM,56.8,11.3,16,30.39,10.0,WSW,12.7,21.9,N/A,,Clear,240,2013-03-15 00:55:00
7:15 PM,55.4,11.7,18,30.39,10.0,WSW,11.5,20.7,N/A,,Clear,250,2013-03-15 01:15:00
7:35 PM,54.0,12.4,19,30.39,10.0,WSW,13.8,20.7,N/A,,Clear,250,2013-03-15 01:35:00
7:55 PM,53.6,14.0,21,30.40,10.0,WSW,15.0,23.0,N/A,,Clear,240,2013-03-15 01:55:00
8:15 PM,52.9,14.5,22,30.40,10.0,WSW,12.7,21.9,N/A,,Clear,250,2013-03-15 02:15:00
8:35 PM,52.5,14.9,23,30.40,10.0,WSW,18.4,24.2,N/A,,Clear,250,2013-03-15 02:35:00
8:55 PM,52.2,15.3,23,30.40,10.0,West,13.8,23.0,N/A,,Clear,260,2013-03-15 02:55:00
9:15 PM,52.2,15.3,23,30.40,10.0,West,15.0,21.9,N/A,,Clear,270,2013-03-15 03:15:00
9:35 PM,52.0,15.4,24,30.40,10.0,West,13.8,24.2,N/A,,Clear,270,2013-03-15 03:35:00
9:55 PM,49.3,15.4,26,30.40,10.0,North,8.1,-,N/A,,Clear,350,2013-03-15 03:55:00
10:15 PM,49.6,14.9,25,30.41,10.0,NW,11.5,-,N/A,,Clear,310,2013-03-15 04:15:00
10:35 PM,52.0,14.9,23,30.40,10.0,NW,10.4,17.3,N/A,,Clear,320,2013-03-15 04:35:00
10:55 PM,49.5,13.6,24,30.40,10.0,North,5.8,-,N/A,,Clear,350,2013-03-15 04:55:00
11:15 PM,48.2,13.8,25,30.40,10.0,NW,5.8,-,N/A,,Clear,320,2013-03-15 05:15:00
11:35 PM,46.4,14.0,27,30.40,10.0,NNW,5.8,-,N/A,,Clear,340,2013-03-15 05:35:00
11:55 PM,47.3,14.0,26,30.40,10.0,NW,4.6,-,N/A,,Clear,310,2013-03-15 05:55:00